Location: Dattenbrunn
(48.8884°N, 10.7917°E)
Time: 00:25:25
(UTC+00:00)

Daily predictions for brighter satellites

Satellite Brightness Start Highest point End
(mag) Time Altitude Azimuth Time Altitude Azimuth Time Altitude Azimuth
CENTAUR R/B 4.3 02:28:55 24° E 02:28:55 24° E 02:33:31 10° ENE
Cosmos 2278 Rocket 4.5 02:51:58 16° NNE 02:51:58 16° NNE 02:53:06 10° NNE
Cosmos 2344 3.9 02:53:31 56° ESE 02:53:31 56° ESE 03:00:50 10° NE
BREEZE-M DEB (TANK) 4.5 03:15:56 35° ESE 03:15:56 35° ESE 03:21:17 10° ESE
USA 215 3.4 03:19:10 10° ESE 03:25:36 66° NNE 03:25:43 65° NNE
Cosmos 2369 Rocket 4.0 03:33:45 10° SSE 03:38:27 29° ESE 03:43:12 10° NE
NOSS 3-3 (A) 4.4 03:44:28 69° W 03:45:15 75° SW 03:53:41 10° SSE
NOSS 3-3 (C) 4.4 03:44:32 69° W 03:45:21 75° SW 03:53:46 10° SSE
COSMO-SKYMED 1 3.8 03:44:01 10° SE 03:48:02 38° ENE 03:48:36 37° NE
Cosmos 1867 4.4 03:50:15 41° S 03:50:15 41° S 03:53:48 10° SSE
Cosmos 2208 Rocket 4.4 03:52:18 55° SSE 03:52:18 55° SSE 03:56:28 10° SSE
MOS 1-B Rocket 4.1 03:45:00 10° SSE 03:51:14 70° ENE 03:54:14 29° N
H-2A R/B 4.5 03:49:23 10° NNE 03:52:42 31° E 03:56:03 10° SSE
Tsikada Rocket 4.1 03:46:54 10° S 03:53:04 74° E 03:59:21 10° NNE
Gblst 52 Del rocket 4.3 03:54:35 71° SSW 03:55:10 78° SSE 04:01:52 10° ENE
Cosmos 1943 Rocket 2.0 04:06:38 65° SW 04:07:31 85° WNW 04:13:13 10° NNE
CZ-2C R/B 2.9 04:03:46 10° SSE 04:09:12 68° ENE 04:13:25 17° N
Cosmos 1241 Rocket 4.3 04:10:32 60° WSW 04:10:48 61° WSW 04:16:52 10° SSE
SL-19 R/B 4.1 04:05:50 10° SSE 04:11:26 83° WSW 04:13:20 44° NNW
SL-8 R/B 3.6 04:16:23 80° SSW 04:16:28 80° S 04:21:15 10° ESE
CENTAUR R/B 2.4 04:16:09 48° WSW 04:18:00 77° NW 04:25:19 10° NE
Cosmos 2297 3.6 04:21:07 51° WSW 04:22:28 68° WNW 04:28:12 10° NNE
Iridium 2 4.0 04:23:35 10° S 04:27:21 66° E 04:31:07 10° N
SL-24 R/B 4.4 04:23:21 10° N 04:27:42 54° NW 04:27:42 54° NW
NOSS 3-2 (A) 3.5 04:27:50 48° W 04:29:05 57° NW 04:35:42 10° NE
Cosmos 2278 Rocket 3.8 04:33:50 19° NNW 04:33:50 19° NNW 04:36:34 10° N
Envisat 2.9 04:29:52 10° NNE 04:34:59 88° ESE 04:40:04 10° SSW
Meteor 2-6 Rocket 4.2 04:30:20 10° N 04:35:48 77° ENE 04:41:11 10° SSE
SKYMED 2 3.4 04:31:41 10° S 04:36:01 73° WSW 04:37:12 47° NNW
NOSS 3-2 (C) 3.3 04:33:35 31° SW 04:36:31 78° NW 04:43:10 10° NE
Cosmos 2098 Rocket 3.0 04:38:24 10° S 04:42:18 88° E 04:47:18 10° N
SL-27 R/B 4.3 04:40:35 16° N 04:42:54 30° ENE 04:46:04 10° ESE
Meteor 2-3 Rocket 3.8 04:37:37 10° SSW 04:43:07 51° WNW 04:48:43 10° N
Landsat 5 3.5 04:41:09 10° S 04:45:40 75° WSW 04:48:26 23° NNW
Cosmos 968 Rocket 3.4 04:42:38 17° SW 04:46:32 61° WNW 04:51:37 10° NNE
CZ-4B R/B 4.0 04:43:03 10° NNE 04:47:30 85° WNW 04:51:59 10° SSW
Meteor 2-13 Rocket 4.3 04:41:25 10° SSW 04:47:30 68° WNW 04:53:36 10° N
Genesis I 4.4 04:49:24 28° SW 04:49:24 28° SW 04:52:16 10° S
FALCON 9 DEB 3.5 04:49:58 42° NNE 04:49:58 42° NNE 04:52:13 10° ENE
Cosmos 921 Rocket 3.4 04:50:35 42° W 04:50:47 42° WSW 04:54:59 10° S
Meteor 1-10 Rocket 4.3 04:46:11 10° N 04:51:47 77° ENE 04:57:19 10° SSE
Okean 3 Rocket 3.6 04:49:26 10° S 04:53:57 85° E 04:58:32 10° N
DNEPR-1 R/B 3.9 04:53:15 34° NW 04:55:22 71° SW 05:00:56 10° SSE
Cosmos 1833 4.1 04:51:16 20° NNW 04:55:23 86° WSW 05:01:07 10° SSE
ATLAS 5 CENTAUR R/B 4.5 04:53:34 10° SSE 04:55:54 15° ESE 04:58:21 10° ENE
H-2A R/B 3.0 04:52:13 10° SE 04:56:18 47° ENE 05:00:30 10° N
Cosmos 1812 2.9 04:56:57 44° W 04:57:04 44° W 05:00:43 10° SSW
CBERS 1 LM4 rocket 4.3 04:53:21 10° NNE 04:58:11 73° WNW 05:03:09 10° SSW
ADEOS 3.8 04:53:15 10° NNE 04:58:31 74° ESE 05:03:43 10° S
Cosmos 1151 Rocket 3.2 05:01:35 24° NNW 05:03:54 47° W 05:08:06 10° SSW
USA 238 DEB 3.7 05:00:11 20° WSW 05:04:48 55° NW 05:11:39 10° NE
USA 238 3.7 05:00:14 19° WSW 05:04:54 56° NW 05:11:46 10° NE
CZ-2C R/B 3.5 05:01:42 10° NNE 05:06:30 60° E 05:11:28 10° S
Cosmos 1766 Rocket 3.4 05:02:53 10° SSW 05:07:11 64° WNW 05:11:30 10° N
Cosmos 2344 3.9 05:03:34 23° W 05:07:58 45° NNW 05:15:56 10° NE
Cosmos 2263 4.2 05:02:34 10° SSW 05:08:17 86° WNW 05:14:05 10° NNE
USA 215 3.5 05:02:23 10° SE 05:08:45 54° SW 05:13:03 22° WNW
Geosat FO 4.5 05:06:01 10° SE 05:09:20 75° ENE 05:11:21 22° NNW
Meteor PRIRODA 4.0 05:08:15 10° NNE 05:11:52 66° ESE 05:15:27 10° S
Meteor 1-31 Rocket 3.0 05:09:40 10° N 05:13:23 45° WNW 05:17:07 10° SW
Cosmos 2279 Rocket 4.0 05:08:25 10° NNW 05:14:27 55° W 05:20:27 10° SSW
Cosmos 2297 Rocket 4.0 05:10:59 10° NNW 05:15:39 25° NE 05:20:17 10° E
Cosmos 1328 Rocket 3.7 05:12:41 12° NNW 05:16:36 49° W 05:20:48 10° SSW
IRAS Rocket 4.2 05:12:17 10° S 05:17:47 72° WSW 05:23:17 10° NNW
BREEZE-M DEB (TANK) 4.3 05:07:14 10° SW 05:18:26 46° SSE 05:21:54 10° E
Cosmos 2369 Rocket 2.3 05:16:44 10° SW 05:22:11 53° NW 05:27:42 10° NNE
SMAP 4.2 05:17:43 10° NNE 05:22:14 47° E 05:26:44 10° S
FALCON 9 DEB 3.2 05:21:07 28° W 05:22:36 55° NNW 05:25:57 10° ENE
Cosmos 1862 3.6 05:19:46 10° SSW 05:23:31 41° WNW 05:27:18 10° N
COSMO-SKYMED 1 3.6 05:20:45 10° SSW 05:24:20 25° W 05:25:48 21° WNW
Nadezhda 4 Rocket 4.1 05:20:26 10° S 05:26:36 83° E 05:32:51 10° N
H-2A R/B 3.7 05:23:42 10° NNW 05:26:42 23° WNW 05:29:41 10° WSW
H-2A R/B 3.9 05:29:02 10° NNE 05:33:26 32° E 05:37:50 10° SSE
Meteor 2-15 Rocket 4.4 05:28:11 10° NNW 05:34:15 73° W 05:40:17 10° S
Cosmos 2228 Rocket 3.8 05:30:21 10° N 05:34:46 56° ENE 05:39:12 10° SSE
CZ-4B R/B 2.4 05:32:40 10° N 05:36:14 72° WNW 05:39:47 10° SSW
Lacrosse 4 Rocket 3.9 05:35:28 10° N 05:37:49 14° NNE 05:40:11 10° ENE
CZ-4B R/B 1.7 05:36:46 10° SSE 05:40:04 66° ENE 05:43:21 10° N
Cosmos 1408 Rocket 3.5 05:38:20 10° SSW 05:42:35 57° WNW 05:46:50 10° N
CZ-4C R/B 4.4 05:43:09 10° SW 05:45:17 17° W 05:46:01 16° WNW
DMSP B5D2-2 4.4 05:40:36 10° S 05:45:35 46° W 05:50:37 10° NNW
Cosmos 1656 Rocket 3.8 05:40:40 10° SW 05:45:53 47° NW 05:51:10 10° NNE
Cosmos 1503 Rocket 4.1 05:41:01 10° SW 05:46:11 54° WNW 05:51:26 10° NNE
USA 32 4.1 05:41:03 10° N 05:46:20 88° E 05:51:35 10° S
Cosmos 1743 Rocket 3.5 05:45:29 10° S 05:49:52 87° W 05:54:16 10° N
CZ-2C R/B 3.9 05:45:58 10° SW 05:49:58 20° W 05:53:56 10° NW
AQUARIUS 4.4 05:45:48 10° NNE 05:50:19 76° ESE 05:54:48 10° S
Cosmos 2227 Rocket 3.7 05:46:06 10° NNW 05:51:06 31° NE 05:56:05 10° ESE
FAST Rocket 3.9 05:49:25 10° SSW 05:52:01 72° WNW 05:55:08 10° N
Cosmos 1943 Rocket 3.4 05:48:15 11° W 05:52:09 21° NW 05:56:20 10° N
PSLV R/B 4.4 05:51:36 10° NNE 05:55:30 64° ESE 05:59:28 10° S
Cosmos 1515 Rocket 4.2 05:52:52 10° NNW 05:56:50 34° W 06:00:46 10° SSW
PSLV R/B 3.9 05:53:25 10° SSE 05:57:28 88° E 06:01:36 10° NNW
Cosmos 1777 Rocket 4.0 05:52:36 10° SSW 05:57:49 86° WNW 06:03:06 10° NNE
FALCON 9 DEB 3.6 05:56:51 13° WNW 05:59:08 34° N 06:01:49 10° ENE
CORIOLIS 4.3 05:54:08 10° NNE 05:59:38 82° ESE 06:05:05 10° SSW
Meteor 1-27 Rocket 4.0 05:54:30 10° NNW 05:59:56 50° W 06:05:25 10° SSW
NOAA 6 4.0 05:56:35 10° NNE 06:01:45 86° WNW 06:06:52 10° SSW
Cosmos 1602 3.8 05:58:29 10° S 06:02:17 82° E 06:06:07 10° NNE
COSMOS 2487 2.3 06:00:58 10° NNW 06:04:21 83° WSW 06:07:41 10° SSE
FALCON 9 DEB 3.6 06:03:16 11° WNW 06:05:47 33° N 06:08:26 10° ENE
SJ 16-02 1.3 06:02:59 10° SSW 06:07:21 72° WNW 06:11:45 10° NNE
FALCON 9 DEB 3.6 06:05:15 10° WNW 06:07:52 34° N 06:10:32 10° ENE
CENTAUR R/B 3.6 06:04:05 10° W 06:09:54 32° NNW 06:16:42 10° NE
Alouette 2 Rocket 3.6 06:06:40 10° NNW 06:10:28 45° W 06:13:52 10° S
NOAA 12 4.3 06:07:43 10° N 06:12:48 48° WNW 06:17:48 10° SW
Envisat 4.4 06:10:14 10° NNW 06:13:20 16° NW 06:16:25 10° W
Cosmos 1689 Rocket 4.0 06:11:09 10° SE 06:13:22 25° ENE 06:15:35 10° NNE
Cosmos 1340 Rocket 3.0 06:11:37 10° SSW 06:15:26 47° WNW 06:19:20 10° N
ARGOS 4.4 06:11:13 10° NNE 06:16:25 47° E 06:21:34 10° S
SL-27 R/B 3.8 06:14:54 10° NW 06:17:47 23° W 06:20:36 10° SSW
Cosmos 1500 Rocket 4.0 06:14:36 10° SSW 06:18:52 43° WNW 06:23:10 10° N
Cosmos 1939 Rocket 3.4 06:15:48 10° N 06:19:25 35° WNW 06:23:00 10° SW
Cosmos 2219 4.1 06:16:27 10° NNW 06:21:55 47° NE 06:27:23 10° SE
PAYLOAD B 4.5 06:16:27 10° NNE 06:22:03 80° ESE 06:27:35 10° SSW
